Notices

What's New in latest Release from April 7th, 2021:

- Updated Glossary, including Speed of Maximum Gust, and Total Hourly Precipitation

- Updated national and regional climate services offices contacts and prices information

- Addition of station inventory lists for 1981-2010, 1971-2000, and 1961-1990 Normals.

If you haven't already, please take our survey and provide feedback about our website: https://eccc.sondage-survey.ca/f/LanguageSelection.aspx?s=442ca660-fcf1-47c0-95a9-59707d6fd709

Hourly Data Report for October 06, 2019

SAINT JOHN A
NEW BRUNSWICK
Current Station Operator: NAVCAN

45°18'58.000" N
65°53'24.000" W
108.80 m
8104901
71609
YSJ

Download Data

Hourly Data (October 2019)
Hourly Data Report for October 6, 2019
TIME
LST
Temp Definition
°C
Dew Point Definition
°C
Rel Hum Definition
%
Precip. Amount Definition
mm

Wind Dir Definition
10's deg

Wind Spd Definition
km/h
Visibility Definition
km
Stn Press Definition
kPa
Hmdx Definition


Wind Chill Definition


Weather Definition


00:00 0.4 0.1 98   9 3 24.1 101.38     LegendNANA
01:00 -1.1 -1.6 96   0 1 24.1 101.41   -1 LegendNANA
02:00 -0.7 -0.9 99   36 3 24.1 101.41   -2 Clear
03:00 -1.6 -2.2 96   21 7 24.1 101.44   -4 LegendNANA
04:00 -2.5 -2.5 100   6 7 24.1 101.43   -5 LegendNANA
05:00 -0.5 -0.5 100   2 5 24.1 101.47   -2 Clear
06:00 -2.7 -2.8 100   2 3 12.9 101.51   -4 LegendNANA
07:00 -0.8 -0.8 100   3 4 24.1 101.54   -2 LegendNANA
08:00 3.6 2.7 93   36 3 24.1 101.58     Mostly Cloudy
09:00 9.2 5.5 78   18 5 24.1 101.56     LegendNANA
10:00 13.3 2.1 46   23 21 24.1 101.55     LegendNANA
11:00 13.7 4.1 52   23 19 24.1 101.54     Mostly Cloudy
12:00 13.8 3.7 50   22 22 24.1 101.50     LegendNANA
13:00 13.4 7.6 68   21 30 24.1 101.45     LegendNANA
14:00 13.4 7.3 66   21 34 24.1 101.41     Mostly Cloudy
15:00 12.0 6.8 70   20 40 24.1 101.37     LegendNANA
16:00 11.8 7.8 76   20 28 24.1 101.33     LegendNANA
17:00 11.5 8.1 80   21 33 24.1 101.30     Cloudy
18:00 10.8 8.2 84   21 26 24.1 101.28     LegendNANA
19:00 11.2 8.4 83   21 21 24.1 101.29     LegendNANA
20:00 11.4 9.2 86   21 28 24.1 101.27     Cloudy
21:00 11.5 10.0 90   20 27 24.1 101.22     LegendNANA
22:00 11.8 10.8 94   21 33 12.9 101.18     LegendNANA
23:00 11.7 10.6 93   20 25 9.7 101.13     Fog

Notes on Data Quality.

Legend

  • E = Estimated
  • M = Missing
  • NA = Not Available*
  • [empty] = Indicates an unobserved value
Date modified: